DLH739 LIMC-LEMD

Flight info

Callsign DLH739
Flight time N/A
Altitude 37000
Route DOGUB6TXNEDED6I/35R NEDED DCT GEKBA DCT VAMTU DCT KOLON DCT GANGU DCT PADKO DCT DIVKO DCT NILDU DCT NENDA N975 ADUXO
Aircraft A320/M-SDE3FGHIRWY/LB1

Departure

Time N/A
Airport Milan Malpensa International Airport (LIMC)

Arrival

Time 2026-04-30 18:13
Airport Adolfo Suárez Madrid–Barajas Airport (LEMD)
Time Latitude Longitude Altitude Speed Heading
2026-04-30 17:39 41.05994 0.09372 37052 ft 418 kts 259°
2026-04-30 17:42 41.00814 -0.28491 37042 ft 416 kts 254°
2026-04-30 17:43 40.96052 -0.46564 37040 ft 416 kts 250°
2026-04-30 17:44 40.90174 -0.68097 37037 ft 416 kts 249°
2026-04-30 17:47 40.81262 -1.00423 36346 ft 417 kts 249°
2026-04-30 17:48 40.77251 -1.14836 35346 ft 419 kts 249°
2026-04-30 17:48 40.75295 -1.21836 34880 ft 426 kts 248°
2026-04-30 17:49 40.71180 -1.36501 33922 ft 427 kts 248°
2026-04-30 17:50 40.67037 -1.51181 32856 ft 430 kts 248°
2026-04-30 17:51 40.63871 -1.62339 30806 ft 435 kts 248°
2026-04-30 17:52 40.60739 -1.73337 29000 ft 417 kts 248°
2026-04-30 17:53 40.55827 -1.90486 26360 ft 383 kts 249°
2026-04-30 17:54 40.51966 -2.03872 24256 ft 413 kts 248°
2026-04-30 17:55 40.46491 -2.16551 22018 ft 382 kts 238°
2026-04-30 17:56 40.41141 -2.27993 19920 ft 356 kts 238°
2026-04-30 17:57 40.37155 -2.36484 18475 ft 380 kts 238°
2026-04-30 17:58 40.33039 -2.45220 16795 ft 364 kts 238°
2026-04-30 17:59 40.27912 -2.56072 15129 ft 350 kts 238°
2026-04-30 18:00 40.26027 -2.68345 15078 ft 352 kts 268°
2026-04-30 18:00 40.26008 -2.77924 13910 ft 356 kts 268°
2026-04-30 18:01 40.25979 -2.84595 11375 ft 376 kts 268°
2026-04-30 18:02 40.25934 -2.94740 9451 ft 347 kts 269°
2026-04-30 18:02 40.25888 -3.03449 8866 ft 290 kts 268°
2026-04-30 18:03 40.25836 -3.11051 8079 ft 277 kts 269°
2026-04-30 18:04 40.26412 -3.18100 7844 ft 241 kts 279°
2026-04-30 18:05 40.27432 -3.25798 7453 ft 192 kts 278°
2026-04-30 18:06 40.28339 -3.32293 6866 ft 164 kts 289°
2026-04-30 18:07 40.30894 -3.36582 6154 ft 146 kts 309°
2026-04-30 18:08 40.33133 -3.39171 5436 ft 142 kts 320°
2026-04-30 18:09 40.36231 -3.42312 4637 ft 141 kts 321°
2026-04-30 18:10 40.39033 -3.45155 3964 ft 136 kts 320°
2026-04-30 18:11 40.42253 -3.48426 3200 ft 136 kts 321°
2026-04-30 18:11 40.44511 -3.50719 2633 ft 134 kts 322°
2026-04-30 18:12 40.46712 -3.52959 2101 ft 131 kts 323°
2026-04-30 18:13 40.48086 -3.54342 1953 ft 99 kts 321°
2026-04-30 18:13 40.48564 -3.54835 1965 ft 13 kts 321°
2026-04-30 18:14 40.48755 -3.55130 1972 ft 15 kts 270°
2026-04-30 18:15 40.48815 -3.55261 1976 ft 1 kts 300°
2026-04-30 18:15 40.48919 -3.55491 1976 ft 19 kts 322°
2026-04-30 18:16 40.48941 -3.55514 1981 ft 0 kts 321°
2026-04-30 18:18 40.48942 -3.55515 1981 ft 2 kts 321°
2026-04-30 18:18 40.48976 -3.55550 1981 ft 10 kts 323°
2026-04-30 18:19 40.49065 -3.55641 1979 ft 23 kts 322°
2026-04-30 18:19 40.49166 -3.55744 1982 ft 19 kts 323°
2026-04-30 18:19 40.49278 -3.55857 1985 ft 21 kts 315°
2026-04-30 18:19 40.49300 -3.55995 1984 ft 16 kts 275°
2026-04-30 18:20 40.49302 -3.56184 1976 ft 24 kts 268°
2026-04-30 18:20 40.49180 -3.56250 1971 ft 25 kts 175°
2026-04-30 18:20 40.48986 -3.56248 1966 ft 26 kts 181°
2026-04-30 18:20 40.48918 -3.56248 1965 ft 0 kts 179°
2026-04-30 18:21 40.48913 -3.56248 1965 ft 5 kts 179°
2026-04-30 18:21 40.48854 -3.56247 1964 ft 0 kts 178°
2026-04-30 18:22 40.48838 -3.56246 1964 ft 7 kts 179°
2026-04-30 18:23 40.48777 -3.56209 1966 ft 10 kts 110°
2026-04-30 18:23 40.48818 -3.56140 1965 ft 12 kts
2026-04-30 18:23 40.48912 -3.56143 1967 ft 15 kts 359°
2026-04-30 18:23 40.49021 -3.56140 1970 ft 17 kts 358°
2026-04-30 18:24 40.49278 -3.56164 1978 ft 19 kts 322°
2026-04-30 18:24 40.49247 -3.56248 1977 ft 15 kts 177°
2026-04-30 18:24 40.49167 -3.56245 1977 ft 20 kts 178°
2026-04-30 18:25 40.49000 -3.56246 1967 ft 28 kts 177°
2026-04-30 18:25 40.48781 -3.56318 1962 ft 16 kts 249°
2026-04-30 18:25 40.48772 -3.56495 1959 ft 23 kts 269°
2026-04-30 18:26 40.48769 -3.56993 1955 ft 30 kts 270°
2026-04-30 18:26 40.48768 -3.57210 1956 ft 23 kts 270°
2026-04-30 18:26 40.48764 -3.57440 1959 ft 26 kts 272°
2026-04-30 18:27 40.48764 -3.57962 1963 ft 29 kts 267°
2026-04-30 18:27 40.48743 -3.58048 1967 ft 5 kts 210°
2026-04-30 18:28 40.48605 -3.58053 1975 ft 7 kts 168°
2026-04-30 18:28 40.48556 -3.58025 1979 ft 1 kts 150°
2026-04-30 18:28 40.48553 -3.58023 1979 ft 2 kts 150°
2026-04-30 18:29 40.48497 -3.57976 1982 ft 15 kts 148°
2026-04-30 18:29 40.48126 -3.57622 1983 ft 30 kts 140°
2026-04-30 18:30 40.47747 -3.57244 1977 ft 33 kts 137°
2026-04-30 18:30 40.47502 -3.57186 1972 ft 16 kts 139°
2026-04-30 18:31 40.47425 -3.57045 1971 ft 20 kts 127°
2026-04-30 18:31 40.47343 -3.57058 1969 ft 0 kts 232°